Location: Helsinki
(60.1699°N, 24.9384°E)
Time: 03:28:15
(UTC+02:00)

Transit 4A - Pass Details

Date: 30 October 2020
Orbit: 862 x 982 km, 66.8° (Epoch: 25 November)

Event Time Altitude Azimuth Distance (km) Brightness Sun altitude
Rises 19:26:45 0° 281° (W) 3,671 12.5 -22.5°
Reaches altitude 10° 19:29:25 10° 287° (WNW) 2,734 11.5 -22.8°
Maximum altitude 19:35:36 47° 1° (N) 1,280 8.6 -23.5°
Enters shadow 19:37:59 33° 51° (NE) 1,584 8.8 -23.8°
Drops below altitude 10° 19:41:49 10° 75° (ENE) 2,740 - -24.3°
Sets 19:44:30 0° 81° (E) 3,681 - -24.6°
